Weather History for Beale AFB, CA

Change the Weather History Date:

Wednesday, November 27, 2013

  Actual Average Record
Temperature  
Mean Temperature 51 °F -  
Max Temperature 62 °F 57 °F 64 °F (2002)
Min Temperature 40 °F 42 °F 37 °F (2001)
Degree Days  
Heating Degree Days 14    
Growing Degree Days 1 (Base 50)    
Moisture  
Dew Point 42 °F    
Average Humidity 80    
Maximum Humidity 100    
Minimum Humidity 45    
Precipitation  
Precipitation 0.00 in - - ()
Sea Level Pressure  
Sea Level Pressure 30.03 in    
Wind  
Wind Speed 3 mph (North)    
Max Wind Speed 8 mph    
Max Gust Speed -    
Visibility 6 miles    
Events      
Averages and records for this station are not official NWS values.
T = Trace of Precipitation, MM = Missing Value Source: NWS Daily Summary

Daily Weather History Graph

Daily Weather History Graph

Search for Another Location

Airport:

Trip Planner

Search our weather history database for the weather conditions in past years. The results will help you decide how hot, cold, wet, or windy it might be!

Date:

Astronomy

Nov. 27, 2013 Rise Set
Actual Time 7:02 AM PST 4:44 PM PST
Civil Twilight 6:32 AM PST 5:13 PM PST
Nautical Twilight 5:59 AM PST 5:46 PM PST
Astronomical Twilight 5:27 AM PST 6:18 PM PST
Moon 1:11 AM PST (11/27) 1:22 PM PST (11/27)
Length of Visible Light 10h 40m
Length of Day
9h 42m
Waning Crescent, 30% of the Moon is Illuminated
Nov 27
Waning Crescent
Dec 2
New
Dec 9
First Quarter
Dec 17
Full
Dec 25
Last Quarter

Hourly Weather History & Observations

Time (PST) Temp. Windchill Dew Point Humidity Pressure Visibility Wind Dir Wind Speed Gust Speed Precip Events Conditions
12:03 AM 42.8 °F - 41.0 °F 93% 30.06 in 2.5 mi NE 2.3 mph - N/A   Clear
12:58 AM 44.1 °F - 41.5 °F 91% 30.28 in 10.0 mi East 2.3 mph - N/A   Partly Cloudy
1:58 AM 42.8 °F 41.1 °F 42.6 °F 99% 30.28 in 10.0 mi NNW 3.5 mph - N/A   Overcast
2:58 AM 41.5 °F - 40.8 °F 97% 30.26 in 10.0 mi Calm Calm - N/A   Partly Cloudy
3:58 AM 40.6 °F - 40.1 °F 98% 30.25 in 10.0 mi West 2.3 mph - N/A   Clear
4:58 AM 42.8 °F - 41.0 °F 93% 30.23 in 10.0 mi East 2.3 mph - N/A   Overcast
5:58 AM 42.8 °F - 41.0 °F 93% 30.22 in 10.0 mi NNE 2.3 mph - N/A   Overcast
6:58 AM 40.5 °F 38.4 °F 40.3 °F 99% 30.22 in 7.0 mi NNW 3.5 mph - N/A   Mostly Cloudy
7:53 AM 41.0 °F 38.0 °F 41.0 °F 100% 29.99 in - North 4.6 mph - N/A   Clear
7:58 AM 41.0 °F - 41.0 °F 100% 30.22 in 5.0 mi North 2.3 mph - N/A   Clear
8:58 AM 48.0 °F - 45.0 °F 89% 30.22 in 10.0 mi NNW 1.2 mph - N/A   Scattered Clouds
9:58 AM 50.2 °F - 44.1 °F 79% 30.22 in 10.0 mi WNW 5.8 mph - N/A   Scattered Clouds
10:58 AM 52.0 °F - 42.6 °F 70% 30.20 in 9.0 mi NNW 5.8 mph - N/A   Mostly Cloudy
11:58 AM 54.7 °F - 43.2 °F 65% 30.18 in 10.0 mi NW 6.9 mph - N/A   Mostly Cloudy
12:58 PM 59.5 °F - 42.4 °F 53% 30.14 in 10.0 mi NNW 4.6 mph - N/A   Scattered Clouds
1:58 PM 60.3 °F - 39.7 °F 47% 30.12 in 10.0 mi WNW 5.8 mph - N/A   Clear
2:58 PM 62.2 °F - 40.5 °F 45% 30.10 in 10.0 mi NNW 6.9 mph - N/A   Scattered Clouds
3:58 PM 59.2 °F - 42.3 °F 53% 30.10 in 10.0 mi NW 2.3 mph - N/A   Clear
4:58 PM 52.7 °F - 41.9 °F 67% 30.10 in 10.0 mi WNW 5.8 mph - N/A   Scattered Clouds
5:03 PM 51.8 °F - 41.0 °F 67% 29.87 in 10.0 mi WNW 4.6 mph - N/A   Partly Cloudy
5:48 PM 51.8 °F - 42.8 °F 71% 29.87 in 1.5 mi North 3.5 mph - N/A   Haze
5:58 PM 52.5 °F - 42.3 °F 68% 30.10 in 2.0 mi NNW 5.8 mph - N/A   Haze
6:03 PM 51.8 °F - 41.0 °F 67% 29.87 in 3.0 mi NNW 5.8 mph - N/A   Haze
6:43 PM 48.2 °F - 41.0 °F 76% 29.87 in 2.5 mi North 2.3 mph - N/A   Haze
6:53 PM 50.0 °F - 42.8 °F 76% 29.87 in 1.0 mi North 3.5 mph - N/A   Haze
6:58 PM 50.0 °F - 41.0 °F 71% 30.10 in 1.0 mi North 4.6 mph - N/A   Haze
7:03 PM 50.0 °F - 42.8 °F 76% 29.87 in 2.0 mi North 4.6 mph - N/A   Haze
7:08 PM 50.0 °F - 41.0 °F 71% 29.86 in 3.0 mi North 2.3 mph - N/A   Haze
7:23 PM 48.2 °F - 42.8 °F 82% 29.87 in 2.0 mi NNE 5.8 mph - N/A   Haze
7:38 PM 46.4 °F - 41.0 °F 81% 29.87 in 3.0 mi NW 2.3 mph - N/A   Haze
7:58 PM 47.3 °F - 42.6 °F 84% 30.10 in 4.0 mi NW 2.3 mph - N/A   Haze
8:13 PM 48.2 °F - 42.8 °F 82% 29.87 in 6.0 mi NW 4.6 mph - N/A   Haze
8:28 PM 46.4 °F - 42.8 °F 87% 29.87 in 4.0 mi North 2.3 mph - N/A   Clear
8:43 PM 46.4 °F 44.3 °F 42.8 °F 87% 29.87 in 2.5 mi NE 4.6 mph - N/A   Haze
8:48 PM 48.2 °F - 42.8 °F 82% 29.88 in 1.8 mi NE 2.3 mph - N/A   Haze
8:53 PM 48.2 °F - 42.8 °F 82% 29.88 in 2.0 mi NNE 2.3 mph - N/A   Haze
8:58 PM 47.7 °F - 42.4 °F 82% 30.11 in 5.0 mi NNE 2.3 mph - N/A   Haze
9:13 PM 46.4 °F 44.3 °F 41.0 °F 81% 29.87 in 2.0 mi NE 4.6 mph - N/A   Haze
9:18 PM 48.2 °F - 42.8 °F 82% 29.87 in 1.2 mi NE 3.5 mph - N/A   Haze
9:28 PM 46.4 °F 44.3 °F 42.8 °F 87% 29.88 in 2.0 mi ENE 4.6 mph - N/A   Haze
9:38 PM 46.4 °F - 41.0 °F 81% 29.88 in 3.0 mi East 2.3 mph - N/A   Haze
9:58 PM 46.4 °F - 41.2 °F 82% 30.11 in 6.0 mi Calm Calm - N/A   Haze
10:13 PM 46.4 °F 45.2 °F 41.0 °F 81% 29.88 in 4.0 mi NE 3.5 mph - N/A   Haze
10:28 PM 46.4 °F 45.2 °F 41.0 °F 81% 29.88 in 6.0 mi North 3.5 mph - N/A   Haze
10:58 PM 45.9 °F - 41.0 °F 83% 30.11 in 3.0 mi Calm Calm - N/A   Haze
11:13 PM 46.4 °F - 41.0 °F 81% 29.89 in 7.0 mi NNW 2.3 mph - N/A   Clear
11:28 PM 46.4 °F 42.4 °F 42.8 °F 87% 29.88 in 7.0 mi NNW 8.1 mph - N/A   Clear
11:43 PM 46.4 °F 43.5 °F 42.8 °F 87% 29.89 in 5.0 mi North 5.8 mph - N/A   Clear
11:58 PM 45.0 °F 43.5 °F 41.5 °F 88% 30.12 in 5.0 mi North 3.5 mph - N/A   Clear